Wind_Speed
8 7 6 6 7 6 5 4 4 5 6 8 9 10 11 11 12 13 15 16 17 17 17 18 20 22 23 25 27 29 31 33 34 35 36 36 36 36 35 35 35 35 35 35 35 35 35 35 35 35 35 35 35 34 34 33 32 32 32 32 32 32 31 31 31 31 31 30 29 26 24 22 21 21 21 22 22 22 23 24 25 26 26 27 27
11 11 9 8 7 8 8 7 6 6 7 8 9 9 10 11 12 13 14 15 17 17 17 18 19 21 23 24 26 28 30 32 34 35 36 36 37 36 35 35 35 35 35 35 35 35 35 35 35 36 36 35 35 34 34 33 33 33 32 32 32 32 32 32 32 31 31 31 31 30 28 26 25 24 23 23 23 23 24 25 26 27 27 27 28
13 13 13 11 10 9 10 9 9 8 8 9 10 10 11 11 12 13 13 14 16 17 18 18 19 21 23 24 26 28 30 32 33 35 36 37 37 37 36 35 35 35 36 35 35 35 36 36 36 36 37 37 36 35 34 34 33 33 32 32 32 32 33 33 32 32 32 31 32 32 32 31 29 28 26 25 24 24 25 26 27 28 28 28 28
14 14 15 15 14 12 12 11 11 10 9 10 11 12 12 12 12 13 13 14 15 16 17 18 19 21 22 24 25 27 29 31 33 35 36 37 37 37 37 36 35 35 36 36 35 35 36 37 37 37 38 38 38 37 36 35 34 33 33 33 33 32 32 33 33 33 33 32 32 32 33 34 33 32 30 29 27 26 26 27 28 30 30 30 30
16 16 15 16 16 16 15 14 13 12 12 12 13 14 14 15 14 14 14 14 15 15 16 18 20 21 22 23 25 26 29 31 33 35 36 37 38 38 37 36 35 35 35 36 36 36 37 37 38 38 39 39 39 38 37 36 35 34 34 34 33 33 33 33 33 33 33 33 32 32 33 35 36 35 34 33 31 29 29 29 30 31 31 31 32
18 18 17 17 17 18 19 18 17 16 16 16 16 17 17 17 17 16 16 15 16 16 17 17 19 21 22 23 24 26 27 29 32 34 36 37 38 39 38 37 36 35 35 36 37 38 38 38 38 39 40 40 41 40 39 37 36 35 35 34 34 34 33 33 33 33 33 33 33 33 33 34 36 37 37 37 35 34 32 32 33 33 32 32 33
20 20 19 19 19 19 20 21 21 20 20 20 20 20 20 19 19 19 18 18 17 17 17 17 18 20 22 23 25 26 27 28 30 33 35 37 39 39 39 38 37 36 36 36 37 39 39 39 39 40 41 42 42 42 41 39 38 37 36 35 35 35 34 34 33 33 33 33 33 34 34 34 35 37 39 39 39 38 36 35 35 35 35 35 35
21 21 21 21 21 21 22 23 24 23 22 23 23 23 23 22 21 21 21 20 20 19 19 18 18 20 22 23 25 26 27 28 29 31 34 36 38 40 40 40 38 37 37 36 37 38 40 40 40 41 41 43 44 44 44 42 40 39 38 37 36 36 35 34 34 33 33 33 33 33 34 35 36 37 38 40 41 40 39 39 38 38 38 38 38
22 23 23 23 23 23 24 25 26 26 25 25 26 27 26 25 23 23 23 23 22 21 20 19 19 20 21 23 25 26 27 28 29 30 32 35 37 39 41 41 41 39 39 38 38 38 40 41 41 42 42 43 44 45 46 45 43 41 40 39 38 37 36 35 35 34 33 33 33 33 34 35 36 37 38 40 41 42 41 42 42 41 41 41 40
24 25 25 25 25 25 26 27 28 28 28 28 28 29 29 27 26 26 26 25 24 23 22 21 20 20 21 23 25 26 27 28 29 30 31 34 37 39 41 42 42 42 41 40 39 39 40 41 42 43 44 44 44 46 47 48 47 44 42 40 39 38 37 36 36 35 34 34 33 33 33 34 35 37 38 40 41 42 43 44 44 44 44 44 44
26 27 27 27 27 27 27 28 29 30 30 30 30 30 31 30 29 28 28 27 27 25 24 22 22 21 21 23 25 26 28 29 30 30 31 33 36 39 41 42 43 43 43 42 41 40 40 41 42 44 45 45 45 46 47 49 49 48 45 43 41 40 39 38 37 36 35 34 34 34 33 33 34 35 38 39 40 42 44 46 46 46 47 47 47
28 29 29 29 29 29 29 29 30 31 32 31 31 31 32 32 32 31 30 29 29 28 26 25 23 23 22 23 24 26 27 29 30 31 32 33 35 38 40 42 43 44 44 44 43 42 41 42 42 44 46 46 46 46 47 48 50 50 49 46 44 42 41 40 39 38 36 35 34 34 33 33 33 34 36 38 40 41 44 47 48 48 49 50 50
30 30 30 31 31 31 31 31 31 32 33 33 32 32 33 34 34 34 32 31 30 30 28 26 25 24 24 24 24 25 27 28 30 31 32 33 35 37 40 42 44 45 45 45 44 43 43 42 43 44 46 47 48 47 47 48 50 51 52 50 47 45 43 42 41 40 39 38 36 35 34 33 33 33 34 36 38 40 42 45 48 50 50 51 52
32 32 32 32 32 32 32 32 33 34 34 34 33 33 34 35 35 36 35 33 32 31 30 28 26 26 25 25 25 25 26 28 30 31 33 34 35 37 39 42 44 45 46 46 46 45 44 44 44 45 47 48 49 49 48 48 49 51 53 53 51 48 47 45 43 42 41 41 39 38 36 35 34 33 34 35 36 38 40 43 47 49 52 53 54
35 35 34 34 34 34 34 34 34 35 35 35 35 35 35 36 37 36 36 35 34 33 32 30 28 28 27 26 26 26 27 28 30 31 33 35 36 37 39 41 44 46 47 47 47 47 46 46 46 46 48 49 50 51 51 50 50 51 53 54 54 52 50 48 47 45 44 43 42 41 40 39 37 36 35 36 36 37 38 41 44 47 50 53 55
37 37 36 36 35 35 35 36 36 36 37 37 36 36 37 38 38 37 37 36 35 35 33 31 30 30 29 29 28 28 28 29 30 32 33 35 36 38 39 41 44 46 48 49 49 48 47 47 47 47 49 50 51 52 53 53 52 52 53 55 56 55 53 52 50 49 47 46 44 43 43 43 41 40 38 37 36 36 38 39 41 44 47 51 54
39 39 38 37 37 37 37 37 38 38 38 38 38 38 38 39 39 38 37 37 36 35 34 33 32 32 32 31 31 31 30 31 32 33 34 36 37 39 40 42 44 46 48 49 50 50 49 48 48 49 50 51 52 53 54 55 55 54 54 55 57 57 56 55 54 53 51 50 48 47 46 45 45 44 42 40 38 37 37 38 39 42 44 46 50
41 40 39 39 38 38 38 38 39 39 39 39 39 38 39 39 39 39 38 38 37 36 34 33 34 34 33 33 32 32 32 33 34 35 35 37 38 40 41 43 45 46 48 50 51 51 51 50 50 50 51 52 53 54 55 56 57 57 56 56 57 58 59 58 57 56 55 54 53 51 50 48 48 47 45 44 41 39 38 38 39 41 42 44 46
42 41 41 40 40 39 39 39 39 40 40 40 40 39 40 40 40 40 40 39 38 36 35 35 35 35 34 34 34 34 34 35 36 37 37 39 40 41 42 44 45 47 48 50 52 52 52 52 52 51 52 53 54 55 56 57 58 59 58 57 58 59 60 60 59 58 58 57 56 55 54 53 52 50 49 46 44 42 40 39 39 41 42 43 45
44 44 43 42 41 40 40 40 40 41 41 41 41 41 41 41 41 41 41 41 39 37 36 36 37 36 35 35 35 35 35 36 38 39 39 40 41 43 44 45 46 48 49 50 52 53 53 53 53 53 53 54 55 56 57 57 58 59 60 59 59 59 60 60 60 60 59 59 57 57 56 56 55 54 53 50 46 45 43 42 41 41 42 43 43
46 46 45 44 43 41 41 41 42 42 42 43 42 42 42 42 42 42 42 42 41 39 38 39 39 38 36 36 35 36 36 37 39 40 41 41 43 44 45 46 47 48 50 51 52 53 54 54 54 54 55 55 56 57 58 58 58 59 61 61 60 60 60 61 61 60 60 60 59 58 58 58 57 56 55 53 50 49 46 43 41 41 41 42 42
49 48 47 46 45 43 43 43 44 44 44 44 43 43 43 43 43 44 44 43 43 41 41 41 41 40 39 37 37 37 37 38 39 40 41 42 44 45 46 47 48 49 50 51 53 54 54 55 55 55 56 57 57 58 59 59 59 60 61 62 62 61 61 61 62 61 61 61 60 60 59 59 59 58 57 55 53 52 49 46 43 42 42 44 44
52 50 49 48 47 46 45 46 46 45 45 45 45 44 44 45 45 45 45 45 44 43 43 43 43 42 41 40 39 38 39 39 40 41 42 43 44 46 47 49 49 50 51 52 53 54 55 55 56 56 57 58 58 59 59 60 60 60 61 62 63 63 62 62 62 62 62 62 61 61 61 60 60 60 59 57 55 53 50 48 46 44 44 45 46
54 52 51 50 49 49 48 47 47 47 47 47 47 46 47 47 47 47 47 46 46 45 45 45 45 44 43 42 41 40 41 41 42 42 43 44 45 46 48 49 50 50 51 53 54 55 56 56 57 57 58 59 59 60 60 61 61 61 62 62 63 64 64 63 63 63 62 62 62 62 62 61 61 61 60 59 57 55 52 50 48 47 45 45 45
56 54 53 53 52 51 50 49 49 50 50 50 49 49 49 49 49 49 48 48 47 47 47 47 46 46 45 44 43 43 43 43 43 43 44 45 46 47 49 50 51 51 52 54 55 55 56 57 57 58 58 59 60 61 61 62 62 62 62 63 63 64 65 64 63 63 63 62 63 63 62 62 62 62 62 61 59 57 55 51 49 48 47 46 45
58 57 56 55 54 53 53 52 51 51 51 52 51 51 51 51 50 50 50 50 49 49 49 49 48 48 47 46 45 45 45 45 44 44 45 45 47 48 49 51 52 52 53 54 55 56 57 58 58 59 59 60 61 61 62 63 63 64 63 63 64 64 65 65 64 64 64 63 63 63 63 63 62 62 63 63 61 59 57 53 50 47 47 47 47
61 59 58 57 57 56 55 54 53 52 53 53 53 53 53 52 52 52 52 51 51 51 51 51 50 49 48 47 47 47 47 47 46 46 46 46 47 48 50 52 53 53 54 55 56 57 58 58 59 60 60 60 61 62 63 64 64 65 65 65 65 65 66 66 65 65 65 64 64 64 64 64 63 63 64 64 63 61 59 56 52 48 46 47 47
63 62 61 60 59 58 57 56 54 53 54 54 55 55 55 54 54 54 54 53 53 53 53 53 52 51 50 50 49 49 49 48 48 47 47 47 48 49 50 52 53 54 55 56 57 58 59 59 60 60 61 61 62 63 64 64 65 66 66 66 66 66 66 66 66 66 65 65 65 64 65 64 64 63 64 65 64 63 62 59 54 49 46 46 46
66 65 63 62 61 59 58 57 56 55 55 55 56 57 56 56 56 56 55 55 54 55 55 54 54 53 52 51 51 51 51 50 49 49 49 49 49 49 51 53 54 55 56 57 58 59 59 59 60 61 61 62 63 63 64 65 66 67 67 68 67 67 67 66 67 67 66 66 65 65 66 65 65 64 65 66 65 65 64 61 57 51 47 46 46
69 67 64 64 62 59 58 58 57 56 56 56 58 59 58 58 57 57 57 56 57 57 57 56 56 55 54 53 53 53 52 51 51 51 51 50 50 51 52 53 55 56 56 57 58 59 60 60 60 61 62 62 63 64 65 66 67 67 68 68 68 68 67 66 67 68 67 67 66 66 66 66 66 65 66 67 67 66 66 64 60 54 48 46 47
71 67 67 66 62 60 60 59 58 58 58 58 60 60 60 60 59 59 58 58 59 59 59 58 58 57 56 55 55 54 54 53 53 53 53 52 52 52 53 54 55 56 57 58 59 60 61 60 61 62 62 63 64 64 65 67 67 68 69 69 69 69 68 67 67 68 68 67 67 67 67 67 66 66 66 68 68 68 68 67 63 57 51 46 47
72 69 69 67 64 62 61 60 59 60 60 61 61 61 61 62 61 60 60 61 61 61 61 60 60 59 58 57 56 55 55 55 55 55 54 53 53 54 54 55 56 57 58 58 60 61 61 61 61 62 63 64 65 65 66 67 67 68 69 69 70 70 69 68 67 67 68 68 67 68 68 67 67 66 66 68 69 69 69 69 66 61 54 47 45
75 73 71 69 66 64 62 62 61 61 62 62 62 63 63 63 62 62 62 63 63 63 63 62 62 61 60 58 58 57 57 57 57 57 56 55 55 55 55 56 57 58 58 59 61 62 62 62 62 63 63 64 65 65 66 68 68 68 70 70 70 71 69 68 67 67 68 68 68 68 68 68 68 67 67 68 69 70 70 70 68 64 58 49 44
78 76 74 72 69 66 64 64 64 64 64 64 64 65 65 64 64 64 64 65 65 65 65 64 63 62 61 60 59 58 58 59 59 58 58 57 57 56 56 57 58 59 59 60 61 62 63 63 63 64 64 65 65 66 67 68 69 69 70 70 70 71 70 69 68 68 69 69 69 69 69 69 69 68 68 68 70 71 71 71 70 67 62 53 46
81 79 77 76 74 70 67 66 66 66 66 66 66 66 67 66 66 66 66 66 66 66 66 65 65 63 62 61 60 60 60 61 61 60 60 59 58 57 57 58 59 60 59 60 62 63 63 64 64 64 65 66 66 67 68 69 69 70 70 71 70 70 69 68 68 69 70 71 70 70 69 70 70 70 69 69 70 71 72 72 72 69 65 57 49
83 82 80 80 78 75 72 69 68 68 69 68 67 67 68 69 68 69 68 67 67 67 67 67 66 65 63 63 62 62 62 63 63 62 62 60 59 58 58 60 60 60 60 61 62 63 64 65 65 65 66 67 67 68 69 70 70 70 71 71 71 70 69 68 68 68 70 71 71 70 71 71 71 71 70 70 70 72 73 73 73 70 67 61 53
83 83 82 82 81 78 75 72 71 71 71 71 70 69 70 70 70 70 70 69 69 68 69 68 67 66 65 64 64 64 65 65 65 64 63 62 60 59 60 61 62 61 61 61 62 63 64 65 66 66 67 67 68 70 70 70 71 71 72 73 72 70 69 69 68 68 70 71 71 69 70 72 73 73 72 71 71 71 73 74 74 72 69 63 55
84 83 83 83 83 82 80 77 74 73 73 74 73 72 72 72 72 72 72 71 71 70 70 69 68 67 67 67 67 66 67 67 67 65 64 62 60 60 62 64 63 62 61 61 62 64 65 66 66 67 67 68 69 71 71 71 72 72 73 74 74 71 70 70 69 69 71 72 72 70 70 71 73 74 73 72 72 72 73 75 75 74 71 66 58
84 83 83 84 85 84 83 80 78 76 76 76 76 76 75 74 75 75 74 73 73 72 71 70 69 69 68 69 68 68 69 68 67 66 64 62 61 62 65 65 64 62 61 62 63 65 65 66 66 67 68 68 70 71 72 72 72 73 74 76 74 72 72 71 69 70 71 73 74 72 72 73 73 74 74 74 73 73 74 75 76 75 73 69 62
87 84 83 84 86 86 85 83 80 79 79 79 78 78 78 78 77 77 76 76 75 74 73 71 71 71 70 70 70 70 70 69 68 66 64 63 63 65 67 66 64 63 61 62 64 66 66 66 67 68 68 69 70 71 73 73 73 74 76 77 75 74 73 72 71 71 72 74 75 73 73 74 75 75 75 75 74 74 75 76 77 77 75 72 64
93 89 86 85 87 88 86 85 84 82 80 80 80 79 80 81 80 79 78 78 77 76 74 73 73 72 72 72 71 71 71 70 68 65 64 64 66 68 68 67 64 63 61 63 66 67 66 67 68 68 68 69 70 72 73 74 73 75 77 77 76 75 74 73 72 72 73 76 76 75 75 76 76 77 76 76 76 76 77 78 80 80 78 74 66
97 95 92 88 88 89 89 87 87 84 80 81 83 82 82 83 83 81 80 79 78 76 75 75 75 74 73 73 72 72 71 70 68 67 67 68 70 71 70 67 64 62 62 65 68 67 66 68 69 69 68 69 71 72 73 74 74 75 77 78 77 76 74 74 74 74 75 77 77 76 76 77 78 79 78 77 78 78 78 79 81 82 81 77 70
101 100 98 95 91 91 91 91 90 87 82 82 85 85 85 85 85 83 81 79 78 77 77 76 76 75 74 74 73 73 72 71 70 70 70 72 73 72 70 66 63 63 65 68 70 68 67 69 70 70 68 69 71 73 74 74 74 76 78 78 78 76 74 75 75 75 76 79 78 77 77 78 80 80 79 79 80 81 80 81 83 84 83 80 73
103 103 102 100 96 93 94 94 93 90 86 84 86 88 88 87 86 84 82 80 79 78 78 77 76 76 76 76 75 75 74 74 73 74 74 75 74 72 69 66 64 65 68 70 71 69 69 71 71 70 69 70 72 73 74 75 76 76 78 80 78 76 75 76 76 75 77 79 79 78 78 79 81 82 81 81 82 83 83 83 85 86 85 81 75
104 104 104 104 101 98 97 97 96 95 92 88 87 88 90 89 87 85 84 82 80 79 78 78 78 78 78 78 78 78 77 77 76 76 76 75 73 70 68 66 67 68 70 72 72 70 71 72 72 71 69 70 72 73 75 76 77 78 80 81 79 76 76 76 76 75 78 80 80 78 78 79 82 83 82 82 83 85 85 85 86 88 86 83 78
106 107 107 106 104 102 101 100 99 98 96 93 90 90 90 89 87 85 85 84 82 81 80 80 81 82 81 81 81 80 79 78 77 76 75 74 72 71 69 69 70 71 73 74 73 72 72 73 73 71 70 70 71 73 75 77 78 79 81 81 79 77 76 76 75 75 79 81 80 79 78 79 81 83 83 84 84 85 86 88 89 90 88 85 80
109 110 109 108 106 104 103 102 101 100 99 97 95 93 91 89 88 86 86 86 85 84 83 84 85 84 83 83 82 80 79 78 78 77 76 75 73 73 72 73 73 75 76 75 74 73 73 74 74 73 71 71 72 74 76 77 78 81 82 82 80 78 77 76 75 76 79 81 80 79 79 80 81 83 84 85 85 86 87 89 91 92 90 87 82
113 112 110 109 108 107 105 104 102 102 101 100 98 95 93 91 90 88 87 88 87 87 87 87 86 85 84 83 82 81 80 80 79 78 77 76 76 76 76 76 77 77 77 77 75 74 74 75 75 73 71 72 73 74 76 77 80 82 83 82 80 78 78 76 75 77 80 80 80 79 80 81 82 84 85 86 87 87 88 90 93 94 92 88 83
116 114 112 111 110 109 108 106 103 102 101 102 101 98 95 93 92 90 88 88 89 89 89 88 87 86 86 85 84 82 82 82 81 79 78 78 79 80 80 79 79 79 79 78 76 76 76 77 76 73 72 73 74 75 76 78 81 83 83 82 81 79 78 77 77 80 81 80 79 78 80 81 83 85 86 87 88 89 90 92 94 95 93 89 83
115 115 115 113 112 111 110 108 106 104 102 102 101 101 99 96 93 91 89 89 90 90 90 89 88 88 87 86 85 84 84 84 82 81 81 82 83 83 82 81 81 81 80 79 78 78 78 78 76 74 74 74 74 75 77 79 83 84 84 83 81 80 78 77 79 81 82 81 79 78 79 81 83 86 88 89 89 90 92 94 96 95 92 88 83
113 113 114 115 115 114 113 111 109 107 105 103 102 101 101 98 95 93 92 92 92 92 91 90 90 90 90 88 87 87 86 86 84 84 84 85 85 85 84 83 83 82 82 81 80 79 79 79 77 76 75 74 74 76 78 81 84 85 84 83 81 80 78 79 81 82 82 81 79 78 79 81 83 86 89 90 91 92 95 97 97 95 89 85 81
Wind_Direction
319 325 327 316 307 307 316 332 355 9 16 18 17 15 14 13 12 14 18 23 27 29 31 31 32 33 34 34 32 30 28 26 24 22 21 20 18 17 17 16 16 15 13 11 9 7 5 3 1 359 356 352 349 346 343 340 337 334 331 328 324 321 318 315 311 307 303 299 293 286 280 276 275 277 280 283 286 289 291 291 291 291 291 291 289
313 313 314 315 309 304 305 310 321 336 350 357 1 3 4 3 3 3 7 13 19 23 25 26 28 29 30 30 29 27 26 24 22 21 19 18 17 15 15 15 15 15 13 10 8 7 5 4 2 1 359 355 351 348 344 341 338 335 332 329 325 321 318 315 312 308 304 299 294 289 283 277 273 271 271 274 278 282 285 287 288 288 288 289 289
309 310 309 310 309 307 305 305 310 319 331 340 344 347 349 352 354 355 356 1 9 15 18 20 21 24 26 27 26 24 23 22 20 18 17 16 15 14 13 13 13 14 13 10 8 7 5 4 3 2 1 358 355 351 347 343 340 336 333 329 326 323 319 316 313 309 305 300 294 290 285 281 276 272 268 267 270 274 278 282 283 284 284 285 286
301 305 309 310 309 306 304 302 305 314 325 334 338 339 340 341 343 346 348 351 356 4 9 12 13 15 18 21 21 21 20 20 18 16 15 14 13 12 11 11 11 12 12 11 8 6 5 5 5 4 2 1 358 354 351 347 342 338 335 331 328 325 321 318 314 310 306 301 296 291 287 284 279 275 270 266 264 266 270 274 276 278 280 281 283
295 299 305 308 308 305 303 301 300 303 313 325 333 335 336 337 336 337 340 343 345 350 357 2 4 6 8 11 13 15 16 17 16 15 13 13 11 10 10 10 9 10 10 11 8 6 5 5 5 5 4 3 1 358 355 350 346 341 338 334 331 328 324 320 317 313 309 304 298 292 288 285 282 278 273 269 265 262 263 266 269 272 275 278 280
290 294 298 302 303 303 302 301 299 297 299 308 320 327 329 331 332 332 332 335 338 340 344 351 356 360 2 4 5 7 9 11 12 12 11 11 10 8 8 8 7 7 8 9 8 6 5 5 5 5 6 5 3 1 357 354 350 346 342 338 335 331 327 324 319 315 311 306 301 296 290 285 283 280 276 273 269 265 261 261 264 266 269 272 274
286 291 294 295 297 299 300 300 299 299 297 298 306 316 321 324 327 328 328 328 331 334 337 342 348 354 358 0 2 2 2 4 6 7 8 8 7 7 6 5 5 5 5 6 7 7 6 6 5 5 6 6 5 3 0 357 353 350 346 342 338 335 331 327 323 318 314 310 305 300 295 288 283 281 278 275 272 269 265 262 261 263 265 266 268
283 287 289 290 292 295 296 297 298 298 299 298 299 307 314 316 320 323 324 325 325 328 332 336 340 346 352 356 358 359 360 360 1 2 3 5 5 4 4 3 3 3 3 3 5 5 5 6 6 6 6 6 6 5 3 359 356 353 349 346 342 338 335 331 327 322 318 314 310 304 299 293 287 282 278 276 273 271 268 265 262 262 263 264 266
279 281 283 286 289 291 293 294 295 296 298 298 298 302 308 311 313 317 320 321 321 322 325 331 334 338 344 350 353 355 355 356 356 357 359 0 1 1 1 1 1 1 0 0 2 3 4 5 6 6 5 6 6 6 5 2 359 355 352 348 345 341 338 335 331 327 323 318 314 309 304 298 292 285 280 276 274 272 269 266 265 263 262 262 264
275 277 279 282 285 287 289 291 292 293 295 298 299 300 303 306 309 312 315 318 319 318 319 324 330 333 338 344 348 351 352 352 352 353 354 355 357 357 357 358 359 358 358 358 358 0 2 3 5 6 5 5 6 6 5 4 1 358 354 351 348 344 341 338 335 332 327 323 319 314 310 304 297 290 284 278 275 272 269 267 266 264 263 262 262
271 273 276 279 282 284 286 287 289 290 293 295 297 298 299 302 305 308 310 313 315 315 315 317 324 328 332 338 344 348 349 349 348 348 349 350 352 353 354 354 356 356 356 356 356 357 359 1 3 5 5 5 5 5 5 4 3 0 357 353 350 347 344 341 338 335 332 328 324 321 317 311 304 297 290 284 279 274 270 268 267 265 263 263 262
267 270 273 276 278 280 282 284 286 287 290 292 293 295 297 298 301 304 306 308 311 312 312 312 316 323 327 332 338 344 347 347 346 345 345 346 347 349 350 351 353 353 354 354 353 354 356 359 1 3 4 5 5 4 4 4 3 1 359 356 353 350 347 344 341 338 336 333 330 327 324 319 312 304 296 290 285 278 272 269 267 266 264 263 262
264 266 269 271 274 277 279 281 282 284 286 288 289 291 293 296 299 302 303 304 307 308 309 310 311 316 321 325 332 339 343 344 344 343 343 343 343 344 346 348 350 351 351 351 351 351 353 356 359 1 2 3 4 4 3 3 2 1 360 357 355 353 350 348 345 342 339 337 335 333 330 326 320 312 303 295 289 283 277 272 269 267 266 264 263
261 263 265 268 272 274 276 277 279 281 283 285 286 288 290 293 296 299 301 302 303 305 306 307 308 311 315 319 324 332 338 341 341 341 341 341 341 341 343 345 347 349 349 349 349 349 350 354 357 359 0 1 3 3 2 2 1 1 360 358 356 355 353 351 348 345 343 341 339 337 335 332 327 320 311 303 296 289 283 277 273 269 267 265 264
259 261 264 267 269 271 273 274 276 278 281 283 284 285 287 290 293 295 297 298 300 302 303 305 307 309 311 314 317 324 331 335 337 338 339 339 339 339 340 342 344 347 348 348 348 348 348 351 354 357 358 359 0 2 2 1 0 359 359 358 357 356 354 352 351 349 346 344 342 341 339 336 332 327 321 313 306 298 291 284 278 274 270 267 265
257 260 263 266 268 270 271 273 275 276 279 281 282 283 285 287 290 292 293 295 296 298 300 303 306 307 309 310 312 317 323 329 331 333 335 336 336 337 338 339 341 344 346 346 346 346 346 348 352 355 357 357 358 359 0 0 359 358 358 358 357 356 355 353 352 351 349 347 346 344 343 340 336 333 328 323 316 308 299 292 284 279 274 271 268
257 259 262 265 267 269 271 273 274 276 278 279 280 280 282 285 287 289 290 292 293 295 297 300 304 306 307 308 309 311 316 323 326 327 329 331 333 334 335 337 339 341 343 344 345 345 345 346 349 353 355 356 356 357 358 359 359 358 357 356 356 356 355 354 353 352 350 349 348 347 346 343 341 338 334 329 324 317 308 299 292 285 279 275 272
257 258 260 263 265 267 270 272 274 275 277 278 278 278 279 282 284 286 288 290 292 293 294 298 302 304 305 307 308 308 311 318 321 323 324 326 328 330 332 334 336 338 340 342 343 344 344 344 347 350 353 354 355 355 355 356 357 358 356 355 355 356 356 355 354 352 351 350 349 348 347 346 344 341 338 334 328 322 315 307 300 292 286 281 276
256 257 259 261 263 265 268 270 271 273 274 275 275 276 277 279 281 283 286 288 290 291 292 296 300 302 303 306 307 307 309 314 318 320 320 322 324 326 328 331 333 336 337 339 341 342 343 343 345 348 351 353 353 354 353 353 355 356 356 355 354 354 355 355 354 353 352 351 350 349 348 347 346 344 341 338 331 326 321 314 306 298 292 287 281
254 256 258 260 261 263 266 269 270 271 273 273 274 275 275 276 278 281 284 286 288 288 291 294 297 299 302 304 306 306 308 312 315 317 318 319 320 322 325 327 330 332 334 336 338 340 342 343 343 346 348 351 352 352 352 351 352 353 354 354 353 352 353 354 354 353 352 351 350 349 348 347 347 345 343 340 334 329 324 317 311 303 297 292 287
252 255 257 259 261 263 265 267 268 270 271 272 273 273 274 274 277 279 281 284 285 286 289 293 295 297 299 302 304 306 308 311 313 315 316 317 318 320 321 324 327 329 331 333 336 338 340 341 342 344 346 348 350 350 351 350 350 350 352 353 352 351 351 352 352 352 351 350 349 348 348 347 347 346 344 341 337 332 327 320 314 307 300 296 291
251 254 257 259 261 261 263 265 266 268 270 271 271 272 272 273 275 277 279 282 283 284 288 291 293 295 296 298 301 304 306 309 311 313 315 316 317 318 320 322 324 326 329 331 333 335 338 339 341 342 344 346 347 348 349 349 348 348 349 351 351 350 350 350 351 351 351 350 349 347 347 346 346 346 344 342 339 334 329 322 316 309 301 298 294
251 254 257 258 258 259 261 264 265 267 268 268 269 270 270 272 273 275 277 279 280 282 286 289 292 293 294 295 298 301 304 307 310 311 313 314 316 317 318 320 322 324 326 329 330 333 335 337 339 341 343 344 345 346 347 347 347 347 347 348 349 349 349 349 349 349 350 349 348 347 346 346 345 345 344 343 340 335 330 323 317 310 302 298 296
252 255 256 256 257 259 260 263 264 265 266 266 267 268 269 270 272 274 275 277 277 279 284 288 289 291 291 292 294 297 301 304 307 309 311 312 314 315 317 319 321 322 324 327 328 330 333 335 337 339 341 342 343 344 345 346 346 346 345 345 347 348 348 347 347 347 348 348 347 346 345 345 345 345 343 342 340 337 332 326 318 312 305 300 296
253 254 254 255 257 258 258 260 262 263 264 265 265 266 267 268 271 273 274 274 275 277 281 285 287 288 289 290 291 294 297 301 304 307 309 310 312 313 315 317 319 320 322 324 326 328 330 333 335 338 340 341 341 341 343 344 344 344 344 344 344 346 347 346 345 345 346 346 346 345 344 343 343 344 343 342 340 338 335 329 321 312 306 302 298
253 253 254 255 256 256 256 258 260 262 263 264 265 265 266 267 270 272 272 272 273 275 279 283 284 285 286 287 289 292 294 297 301 304 306 307 309 311 313 315 317 318 319 322 324 326 328 331 333 336 338 339 340 340 341 342 343 343 343 343 343 343 345 345 344 343 344 345 344 344 343 343 342 342 342 341 340 338 336 332 325 315 306 302 300
252 253 253 254 254 254 254 256 259 262 263 263 264 264 264 266 268 269 270 270 271 274 277 281 282 282 284 285 287 289 292 294 298 301 303 305 306 308 311 313 315 316 317 320 323 324 326 329 331 333 336 337 338 339 339 340 341 341 341 342 341 342 343 343 342 342 342 343 343 343 342 342 341 341 341 340 339 338 336 333 329 319 308 301 299
251 251 251 252 253 253 254 256 258 261 262 262 263 263 264 265 266 266 267 268 269 272 276 279 280 280 281 283 285 287 289 292 295 298 301 302 304 305 308 311 313 315 316 318 321 323 325 326 329 331 334 335 337 338 338 338 339 340 340 340 340 340 341 341 341 341 340 341 341 342 341 341 340 340 339 339 339 337 336 334 331 323 311 302 298
250 250 251 251 251 252 254 256 258 260 261 261 261 261 262 263 264 264 265 266 268 271 275 277 277 278 279 281 283 285 287 290 292 295 298 300 301 303 306 309 311 313 314 316 319 322 323 324 327 329 332 333 335 336 337 337 337 338 338 339 339 339 339 339 339 339 338 338 340 340 340 340 339 339 338 338 338 337 336 335 333 326 315 305 298
249 249 250 250 250 252 254 256 258 259 260 260 259 259 260 261 261 262 263 265 268 271 274 275 275 276 277 279 281 283 286 288 290 292 295 297 299 301 304 307 309 311 313 315 317 320 321 322 324 327 329 331 333 334 335 335 336 336 337 337 337 338 337 337 338 338 337 336 338 339 339 339 338 337 337 337 337 337 336 335 333 328 319 308 300
248 248 248 248 250 252 253 255 258 259 259 258 258 258 258 259 259 260 262 263 267 270 272 273 273 274 276 278 279 281 284 286 288 290 292 295 296 299 302 305 307 309 311 313 316 318 320 321 322 325 327 329 331 332 333 334 334 335 335 336 336 336 336 335 336 336 335 335 336 337 338 338 337 336 336 336 336 336 335 335 334 330 323 312 302
248 247 246 246 248 251 252 254 257 259 258 257 257 257 257 257 258 259 260 263 267 270 271 271 272 273 275 277 278 280 283 284 286 288 290 292 295 297 300 303 306 307 309 312 314 317 318 319 320 322 325 327 329 330 331 332 332 333 334 334 335 335 334 334 334 334 333 333 334 335 336 337 336 335 334 334 335 335 335 335 333 331 326 316 305
248 246 245 245 246 249 251 254 256 257 258 257 256 256 255 255 256 258 260 264 267 269 270 270 271 272 274 275 277 278 281 283 285 287 288 290 293 296 298 302 304 305 307 310 313 315 316 318 319 320 322 325 326 328 329 330 331 331 332 333 333 334 333 333 332 331 332 332 332 333 335 336 335 334 333 333 334 334 335 334 333 331 327 319 308
248 247 245 245 245 247 250 252 254 256 256 256 255 255 254 254 255 257 260 264 266 268 269 269 270 271 272 274 275 277 279 282 283 285 286 288 292 294 297 300 301 303 306 309 311 313 315 316 317 318 320 322 324 326 327 328 329 330 331 332 332 332 332 331 330 329 330 330 330 332 334 334 334 333 332 332 332 333 334 334 333 331 328 322 311
249 248 245 244 245 247 248 250 252 254 254 254 253 254 254 254 255 257 260 263 265 267 267 267 268 269 271 272 274 276 278 280 281 283 285 287 291 293 295 298 299 301 304 307 309 311 313 315 315 316 318 320 322 324 325 326 327 328 329 330 331 331 330 329 328 327 328 329 329 331 332 333 333 332 331 331 331 332 333 333 333 331 329 324 316
250 249 246 245 246 247 247 248 250 252 253 252 252 252 253 254 255 257 260 261 263 265 265 265 266 268 270 271 273 275 277 278 280 282 284 287 290 292 294 296 297 300 303 305 307 308 311 313 314 315 316 318 320 322 324 325 325 326 327 329 329 330 329 328 326 325 326 327 327 329 331 331 332 331 331 330 330 331 331 332 332 331 328 324 319
249 250 249 248 247 247 247 247 249 251 252 251 251 251 252 253 255 258 260 261 262 262 262 263 264 266 268 270 271 273 275 278 279 281 283 286 289 291 292 293 296 299 302 303 304 306 308 311 313 313 314 316 318 320 322 323 323 324 326 327 328 329 328 327 325 324 324 325 326 327 329 330 330 330 329 329 329 329 330 330 331 330 328 324 320
249 249 249 249 248 248 248 248 248 249 250 250 251 251 252 253 255 257 259 260 261 261 260 261 263 265 267 269 271 273 275 277 278 280 282 285 288 289 290 291 295 299 301 301 302 304 306 310 312 312 313 314 316 319 321 321 322 323 324 326 327 327 327 326 324 323 322 324 325 325 327 328 329 328 328 328 328 328 329 329 330 329 328 324 320
250 250 249 249 249 249 249 248 248 248 248 248 249 251 253 254 255 256 257 259 259 259 259 260 262 264 267 269 271 273 275 277 277 279 281 284 286 287 287 290 294 298 299 300 300 301 305 309 311 310 311 312 314 317 319 320 321 321 323 325 326 326 326 325 323 321 322 323 323 324 325 327 328 327 327 327 327 327 327 328 328 328 327 325 320
251 251 251 250 249 249 249 248 247 247 248 249 250 251 252 253 254 255 256 257 257 258 259 261 263 265 267 270 272 273 274 276 276 277 280 282 284 284 286 290 294 297 298 297 297 299 304 308 309 309 309 310 313 315 317 319 319 320 322 324 324 324 325 323 321 320 321 322 322 322 324 326 327 326 326 326 326 325 326 326 327 328 327 325 322
251 252 252 251 249 248 248 248 249 249 250 251 252 252 252 253 254 254 254 255 257 258 260 261 263 265 268 271 272 272 273 274 274 276 278 280 281 283 286 290 293 295 296 294 295 298 302 306 307 308 307 308 311 313 316 317 318 318 321 322 322 323 323 322 320 319 320 321 322 321 322 325 326 326 326 325 325 324 325 326 326 327 326 325 322
250 251 251 251 250 249 248 248 250 251 251 251 252 253 253 253 253 253 253 254 257 259 260 262 264 266 269 271 270 270 271 271 272 274 276 278 281 283 287 290 293 294 292 292 294 297 301 304 306 306 306 307 309 311 314 315 316 317 319 321 321 322 322 320 319 318 319 320 321 320 322 324 325 325 325 324 324 324 324 325 325 325 325 324 322
248 249 250 250 250 249 248 248 249 250 251 252 252 253 252 251 251 253 254 255 258 259 261 262 265 267 269 268 267 267 268 269 271 273 275 278 281 284 288 290 292 290 289 290 293 296 299 302 305 305 305 305 307 310 312 313 314 316 318 319 320 321 320 319 319 317 317 320 320 319 321 323 324 324 324 324 323 323 323 324 324 324 325 324 321
247 247 248 249 250 249 248 248 248 249 250 252 252 252 252 252 253 254 256 257 258 260 261 263 264 266 265 265 264 265 266 268 270 273 276 279 283 285 287 289 288 287 288 290 292 295 297 301 304 304 303 304 306 308 310 311 313 314 316 317 319 319 319 318 317 316 316 319 319 319 320 322 323 323 323 323 322 322 322 323 323 324 324 322 320
247 247 247 248 248 249 249 248 248 248 250 252 253 253 253 254 255 256 257 258 258 259 261 262 262 262 262 262 263 265 266 269 271 274 278 281 283 284 285 286 286 286 287 289 292 294 296 300 303 303 302 303 305 306 308 310 312 313 315 316 317 318 318 317 316 314 316 317 318 318 319 321 322 322 322 322 321 321 321 322 323 323 323 321 318
247 247 247 247 248 248 249 249 249 250 251 252 254 254 254 254 255 256 257 258 258 259 260 260 260 261 262 263 265 266 268 270 273 275 277 279 280 281 283 284 284 285 287 289 291 292 295 298 301 301 301 301 302 303 306 308 310 312 313 315 316 317 317 316 314 313 315 316 316 317 318 319 321 321 321 321 321 321 321 321 322 322 322 320 317
245 246 247 248 248 249 249 250 250 251 252 253 255 255 255 255 256 256 257 258 260 260 261 260 261 262 264 265 266 267 268 270 272 274 275 276 277 279 281 282 283 285 287 289 290 291 293 297 299 300 300 300 300 302 304 306 309 310 312 313 314 315 316 315 312 311 313 315 315 315 317 318 320 320 320 320 320 320 320 320 321 321 321 319 317
244 245 246 247 248 249 250 251 251 252 253 254 255 256 256 256 256 256 257 258 260 261 261 261 262 264 265 266 266 266 267 268 270 273 274 275 276 277 279 281 283 285 286 288 289 290 292 294 298 299 298 297 298 300 302 304 307 309 310 312 313 314 314 313 311 310 313 314 314 315 316 317 319 320 319 319 319 319 320 320 320 320 320 318 316
245 245 246 247 248 249 250 251 252 252 253 254 254 255 256 256 256 256 257 258 259 260 261 262 264 265 266 266 266 266 266 267 269 271 272 273 275 276 278 281 283 284 285 287 288 289 290 294 297 297 296 296 297 299 300 303 306 308 309 310 312 313 313 311 309 310 312 313 313 314 315 316 318 319 319 319 319 319 319 319 319 319 318 317 315
246 246 246 246 247 248 249 250 251 252 252 253 253 254 254 255 256 256 257 257 258 259 261 262 263 264 265 265 265 265 265 266 268 270 271 273 274 276 278 280 282 283 285 286 287 288 290 293 295 295 294 295 296 297 299 302 305 307 308 309 311 312 311 309 309 310 312 312 313 314 314 316 318 318 319 319 319 318 318 318 319 318 318 317 315
247 247 247 246 247 247 248 249 250 251 252 253 253 253 254 255 255 256 257 257 258 259 260 262 263 263 263 264 264 264 264 265 267 269 271 273 274 275 277 279 281 283 284 285 286 288 289 291 293 293 294 294 294 295 297 301 304 305 307 308 310 310 310 309 309 310 311 311 313 313 314 315 317 318 319 319 318 317 318 318 318 317 317 317 314
Height
10916 10917 10918 10918 10918 10919 10919 10920 10920 10920 10920 10920 10920 10920 10920 10920 10920 10920 10921 10921 10920 10920 10920 10919 10918 10918 10917 10917 10916 10916 10915 10914 10914 10913 10912 10912 10911 10910 10909 10908 10906 10905 10904 10903 10902 10901 10899 10898 10897 10895 10893 10892 10890 10889 10888 10886 10885 10884 10883 10882 10880 10879 10878 10877 10877 10876 10875 10875 10874 10872 10872 10871 10870 10870 10870 10870 10870 10870 10869 10869 10868 10867 10866 10866 10865
10915 10916 10917 10917 10918 10918 10919 10919 10919 10920 10920 10920 10920 10920 10920 10920 10920 10920 10920 10920 10920 10920 10920 10919 10918 10918 10917 10917 10916 10916 10915 10914 10914 10913 10912 10912 10911 10910 10909 10908 10906 10905 10904 10903 10902 10901 10900 10898 10897 10895 10894 10892 10891 10889 10888 10886 10885 10883 10882 10880 10879 10878 10877 10876 10875 10874 10873 10873 10872 10871 10870 10869 10868 10867 10867 10867 10868 10868 10868 10867 10866 10865 10864 10864 10863
10914 10915 10915 10916 10917 10918 10918 10919 10919 10919 10919 10920 10920 10920 10920 10920 10920 10920 10920 10920 10920 10920 10919 10919 10918 10918 10917 10916 10916 10915 10915 10914 10913 10913 10912 10912 10911 10910 10909 10908 10907 10905 10905 10903 10902 10901 10899 10898 10896 10894 10893 10891 10890 10889 10887 10885 10884 10882 10881 10879 10878 10877 10875 10874 10873 10872 10871 10871 10870 10869 10868 10867 10866 10865 10864 10865 10865 10865 10865 10865 10864 10862 10862 10862 10861
10913 10913 10914 10915 10916 10916 10917 10918 10918 10919 10919 10919 10919 10920 10920 10920 10920 10920 10920 10920 10920 10919 10919 10918 10918 10917 10917 10916 10915 10915 10914 10914 10913 10913 10912 10911 10911 10910 10909 10908 10907 10906 10905 10903 10902 10900 10899 10897 10896 10894 10892 10891 10889 10887 10886 10884 10882 10880 10879 10878 10876 10875 10874 10873 10871 10870 10869 10869 10868 10867 10866 10865 10864 10863 10862 10862 10862 10862 10862 10862 10860 10859 10859 10859 10859
10911 10912 10913 10914 10914 10915 10916 10917 10917 10918 10918 10919 10919 10919 10919 10919 10919 10919 10919 10919 10919 10919 10919 10918 10917 10917 10916 10916 10915 10914 10914 10913 10913 10912 10912 10911 10910 10910 10909 10908 10907 10906 10904 10903 10901 10900 10898 10896 10895 10893 10891 10890 10888 10886 10885 10883 10881 10879 10877 10876 10875 10873 10872 10871 10870 10868 10867 10866 10865 10865 10864 10863 10862 10861 10860 10860 10859 10860 10859 10858 10857 10856 10856 10857 10856
10910 10911 10912 10912 10913 10914 10914 10915 10916 10917 10917 10917 10918 10918 10918 10919 10918 10918 10918 10918 10918 10918 10918 10917 10917 10916 10916 10915 10914 10914 10913 10913 10912 10912 10911 10911 10910 10909 10909 10908 10907 10906 10904 10903 10901 10899 10897 10896 10894 10892 10891 10889 10887 10886 10884 10882 10880 10878 10876 10874 10873 10871 10870 10869 10867 10866 10865 10864 10863 10862 10862 10861 10860 10859 10858 10857 10857 10857 10856 10855 10854 10853 10854 10853 10853
10908 10909 10910 10911 10912 10912 10913 10913 10914 10915 10916 10916 10916 10917 10917 10918 10918 10918 10918 10918 10917 10917 10917 10917 10916 10915 10915 10914 10914 10913 10913 10912 10912 10911 10911 10910 10910 10909 10908 10907 10907 10905 10904 10902 10900 10898 10897 10895 10894 10892 10890 10888 10886 10885 10883 10881 10879 10877 10875 10873 10871 10870 10868 10867 10865 10864 10863 10862 10861 10860 10859 10858 10857 10856 10856 10855 10854 10854 10854 10853 10851 10850 10850 10850 10849
10907 10908 10908 10909 10910 10911 10911 10912 10912 10913 10914 10914 10915 10915 10916 10916 10916 10916 10916 10917 10916 10916 10916 10916 10915 10915 10914 10913 10913 10912 10912 10912 10911 10911 10910 10910 10909 10908 10907 10907 10906 10905 10903 10902 10900 10898 10896 10895 10893 10891 10889 10888 10886 10884 10882 10880 10878 10876 10874 10872 10870 10868 10867 10865 10863 10862 10860 10859 10858 10857 10856 10855 10854 10853 10853 10852 10852 10852 10851 10850 10848 10848 10847 10846 10846
10905 10906 10906 10907 10908 10909 10909 10910 10911 10911 10912 10912 10913 10913 10914 10914 10915 10915 10915 10915 10915 10915 10915 10915 10914 10914 10913 10912 10912 10911 10911 10911 10910 10910 10909 10909 10908 10908 10907 10906 10905 10904 10902 10901 10899 10897 10895 10894 10892 10891 10889 10887 10885 10883 10881 10879 10877 10875 10873 10871 10869 10867 10865 10863 10861 10860 10858 10857 10856 10855 10854 10853 10852 10850 10849 10849 10848 10849 10849 10847 10846 10845 10844 10843 10843
10903 10904 10904 10905 10906 10907 10907 10908 10909 10909 10910 10910 10911 10911 10912 10913 10913 10913 10913 10914 10914 10914 10914 10913 10913 10913 10912 10911 10911 10911 10910 10910 10909 10909 10908 10908 10907 10907 10906 10905 10904 10903 10901 10900 10898 10896 10895 10893 10892 10890 10888 10886 10884 10882 10880 10878 10876 10874 10872 10869 10867 10866 10864 10862 10860 10858 10856 10855 10853 10852 10851 10850 10849 10848 10846 10845 10844 10845 10845 10844 10843 10842 10840 10839 10839
10901 10902 10902 10903 10904 10905 10905 10906 10907 10907 10908 10908 10909 10909 10910 10911 10911 10911 10912 10912 10912 10912 10912 10912 10912 10911 10911 10910 10910 10909 10909 10908 10908 10907 10907 10906 10906 10905 10905 10904 10903 10902 10900 10899 10897 10895 10894 10892 10891 10889 10887 10885 10883 10881 10879 10877 10875 10872 10870 10868 10866 10864 10862 10860 10858 10856 10854 10853 10851 10850 10849 10848 10846 10845 10843 10842 10841 10841 10841 10840 10839 10838 10837 10836 10835
10899 10900 10900 10901 10902 10902 10903 10904 10905 10905 10905 10906 10906 10907 10907 10908 10909 10909 10910 10910 10910 10910 10910 10910 10910 10910 10909 10909 10908 10908 10908 10907 10907 10906 10906 10905 10905 10904 10904 10903 10902 10901 10899 10898 10896 10894 10893 10891 10890 10888 10886 10884 10883 10880 10878 10876 10873 10871 10869 10867 10864 10862 10860 10859 10857 10854 10853 10851 10850 10848 10847 10845 10843 10842 10840 10838 10838 10837 10836 10835 10834 10834 10833 10832 10831
10897 10898 10898 10898 10899 10900 10901 10902 10902 10903 10903 10904 10904 10905 10905 10905 10906 10907 10907 10908 10908 10908 10908 10908 10908 10908 10908 10907 10907 10907 10906 10906 10906 10905 10905 10904 10904 10903 10902 10901 10900 10899 10898 10897 10896 10894 10892 10890 10889 10887 10885 10883 10881 10879 10877 10874 10872 10870 10868 10865 10863 10861 10859 10857 10855 10852 10850 10849 10847 10846 10844 10843 10840 10839 10837 10835 10834 10833 10832 10830 10829 10829 10829 10828 10827
10894 10895 10895 10896 10897 10897 10898 10899 10899 10900 10901 10902 10902 10903 10903 10903 10904 10904 10905 10905 10906 10906 10906 10906 10906 10906 10906 10906 10906 10905 10905 10905 10905 10904 10904 10903 10903 10902 10901 10900 10899 10898 10897 10895 10894 10892 10890 10888 10887 10885 10883 10881 10880 10878 10875 10873 10871 10869 10866 10864 10861 10859 10857 10855 10853 10851 10848 10847 10845 10843 10842 10840 10838 10836 10834 10832 10831 10829 10828 10827 10825 10824 10823 10823 10822
10891 10892 10893 10894 10894 10895 10896 10896 10897 10897 10898 10899 10900 10900 10901 10901 10902 10902 10903 10903 10903 10904 10904 10904 10904 10904 10904 10904 10904 10904 10904 10903 10903 10903 10902 10902 10901 10901 10900 10899 10898 10896 10895 10893 10892 10890 10888 10886 10885 10883 10881 10879 10878 10876 10873 10871 10869 10867 10865 10862 10860 10857 10855 10853 10851 10849 10847 10845 10843 10841 10839 10836 10835 10833 10831 10829 10828 10826 10825 10823 10821 10819 10818 10817 10817
10888 10888 10889 10891 10892 10893 10893 10894 10894 10895 10896 10896 10897 10898 10898 10899 10899 10900 10901 10901 10901 10901 10901 10901 10901 10901 10901 10902 10902 10901 10901 10901 10901 10901 10900 10900 10900 10899 10898 10897 10896 10895 10893 10892 10890 10888 10886 10884 10883 10881 10879 10877 10875 10873 10871 10869 10867 10865 10863 10860 10858 10856 10853 10850 10848 10846 10845 10843 10841 10840 10837 10834 10831 10830 10827 10825 10824 10823 10821 10820 10818 10815 10814 10812 10811
10885 10886 10887 10888 10889 10890 10891 10891 10892 10893 10893 10894 10894 10895 10895 10896 10897 10898 10898 10899 10899 10900 10899 10899 10899 10899 10899 10899 10899 10899 10899 10899 10899 10899 10898 10898 10898 10897 10897 10896 10895 10893 10892 10890 10889 10887 10884 10882 10880 10879 10877 10875 10873 10871 10869 10867 10865 10863 10860 10858 10856 10853 10851 10848 10846 10843 10841 10840 10838 10837 10835 10832 10829 10826 10824 10822 10821 10819 10817 10816 10814 10811 10809 10808 10806
10882 10883 10884 10885 10886 10887 10888 10889 10889 10890 10891 10891 10892 10892 10892 10893 10894 10895 10895 10896 10897 10897 10897 10897 10897 10897 10897 10897 10897 10897 10897 10897 10897 10897 10896 10896 10895 10895 10894 10894 10893 10891 10890 10889 10887 10885 10883 10880 10878 10876 10875 10873 10871 10869 10867 10864 10862 10860 10858 10856 10854 10851 10849 10846 10843 10840 10838 10837 10835 10833 10831 10829 10826 10824 10821 10818 10816 10815 10813 10812 10810 10807 10805 10804 10802
10878 10879 10881 10882 10883 10884 10885 10886 10887 10887 10888 10889 10889 10890 10890 10890 10891 10891 10892 10893 10894 10894 10895 10895 10895 10895 10895 10895 10895 10895 10895 10895 10895 10894 10894 10894 10893 10892 10892 10891 10890 10889 10888 10887 10885 10883 10881 10878 10875 10874 10872 10870 10869 10867 10864 10862 10860 10858 10856 10853 10851 10849 10846 10844 10841 10838 10836 10834 10832 10830 10828 10826 10823 10820 10818 10815 10812 10810 10809 10808 10806 10803 10801 10799 10797
10875 10876 10877 10879 10880 10881 10882 10883 10884 10884 10885 10886 10887 10887 10887 10888 10888 10888 10889 10890 10890 10891 10891 10892 10892 10892 10892 10892 10892 10892 10893 10893 10893 10892 10892 10891 10891 10890 10889 10889 10888 10887 10886 10884 10883 10881 10879 10876 10873 10871 10870 10868 10866 10864 10862 10860 10857 10855 10853 10851 10849 10847 10844 10842 10839 10836 10834 10831 10829 10827 10825 10822 10820 10817 10814 10811 10808 10806 10804 10803 10802 10799 10797 10795 10793
10871 10872 10874 10875 10877 10878 10879 10880 10880 10881 10882 10883 10884 10885 10885 10885 10885 10885 10886 10886 10887 10887 10888 10888 10889 10889 10889 10889 10890 10890 10890 10890 10890 10890 10889 10889 10888 10887 10887 10886 10886 10885 10883 10882 10881 10880 10878 10875 10872 10869 10867 10866 10864 10862 10860 10858 10855 10853 10851 10849 10847 10845 10843 10840 10837 10834 10831 10829 10827 10824 10822 10819 10817 10814 10811 10808 10805 10802 10800 10798 10797 10795 10793 10791 10789
10867 10868 10870 10871 10873 10874 10875 10876 10877 10878 10879 10879 10880 10881 10882 10882 10882 10882 10882 10883 10883 10884 10884 10885 10885 10886 10886 10886 10887 10887 10887 10887 10888 10887 10887 10886 10885 10885 10884 10883 10883 10882 10881 10880 10879 10878 10876 10874 10871 10867 10865 10863 10862 10860 10858 10856 10854 10851 10849 10847 10845 10843 10841 10838 10835 10832 10829 10826 10824 10821 10819 10816 10814 10811 10809 10806 10802 10798 10795 10793 10792 10791 10789 10787 10785
10863 10865 10867 10868 10868 10870 10871 10872 10874 10875 10875 10876 10877 10878 10878 10879 10879 10879 10879 10880 10880 10880 10881 10881 10882 10882 10882 10883 10883 10883 10884 10884 10884 10884 10884 10883 10882 10882 10881 10880 10880 10879 10878 10877 10876 10875 10874 10872 10869 10866 10863 10860 10859 10858 10856 10854 10852 10849 10847 10844 10842 10840 10838 10836 10833 10830 10827 10824 10821 10818 10816 10814 10811 10808 10805 10803 10800 10796 10793 10789 10787 10786 10784 10782 10781
10859 10862 10862 10863 10864 10865 10867 10868 10870 10871 10871 10872 10873 10874 10875 10875 10875 10876 10876 10876 10876 10877 10877 10878 10878 10879 10879 10879 10879 10880 10880 10881 10881 10881 10880 10880 10879 10879 10878 10877 10877 10876 10876 10875 10873 10872 10871 10869 10867 10864 10861 10858 10856 10855 10853 10851 10849 10847 10845 10842 10840 10837 10835 10833 10831 10828 10825 10822 10819 10816 10813 10811 10808 10805 10802 10800 10797 10794 10791 10787 10783 10781 10780 10778 10776
10855 10856 10857 10858 10860 10861 10863 10864 10866 10866 10867 10868 10869 10870 10871 10871 10871 10872 10872 10873 10873 10873 10874 10874 10875 10875 10875 10875 10876 10876 10876 10877 10877 10877 10877 10876 10875 10875 10875 10874 10874 10873 10873 10872 10870 10869 10868 10866 10864 10862 10859 10857 10854 10851 10850 10848 10846 10844 10842 10840 10837 10834 10832 10830 10828 10825 10822 10819 10816 10813 10811 10808 10805 10802 10799 10797 10795 10791 10788 10784 10781 10777 10775 10773 10771
10850 10850 10851 10853 10855 10856 10858 10859 10861 10862 10863 10864 10865 10866 10867 10867 10868 10868 10868 10869 10869 10870 10870 10871 10871 10871 10872 10872 10872 10872 10873 10873 10874 10874 10873 10873 10872 10871 10871 10871 10870 10870 10869 10868 10867 10866 10865 10863 10861 10859 10857 10854 10852 10849 10846 10844 10843 10841 10839 10837 10834 10831 10828 10826 10824 10822 10819 10816 10813 10810 10808 10805 10802 10799 10796 10793 10790 10788 10784 10781 10778 10775 10771 10768 10766
10844 10845 10846 10848 10849 10851 10853 10854 10856 10857 10859 10860 10861 10861 10862 10863 10864 10864 10864 10865 10865 10866 10866 10867 10868 10868 10868 10868 10868 10869 10869 10869 10870 10870 10870 10869 10869 10868 10867 10867 10867 10866 10865 10865 10864 10863 10861 10859 10857 10855 10853 10851 10849 10847 10843 10841 10839 10837 10835 10834 10831 10828 10825 10823 10820 10818 10816 10813 10810 10807 10805 10802 10799 10796 10793 10790 10787 10784 10782 10778 10775 10772 10769 10765 10763
10839 10838 10840 10842 10844 10845 10848 10850 10851 10852 10854 10855 10856 10857 10857 10858 10859 10859 10859 10860 10862 10862 10862 10863 10864 10864 10864 10864 10864 10865 10865 10866 10866 10866 10866 10866 10865 10865 10864 10863 10863 10862 10861 10861 10860 10859 10857 10856 10854 10852 10850 10848 10846 10844 10841 10838 10836 10834 10832 10830 10828 10826 10823 10820 10817 10815 10812 10809 10807 10804 10801 10798 10796 10793 10789 10786 10784 10780 10778 10775 10772 10769 10766 10763 10760
10832 10832 10836 10837 10837 10840 10843 10844 10845 10847 10849 10850 10851 10851 10853 10853 10854 10854 10855 10856 10857 10857 10858 10859 10859 10860 10860 10860 10861 10861 10862 10862 10862 10862 10862 10862 10862 10861 10861 10860 10859 10859 10858 10857 10856 10855 10854 10852 10851 10849 10847 10845 10842 10840 10838 10836 10833 10831 10828 10826 10825 10823 10820 10817 10814 10811 10809 10806 10803 10800 10798 10795 10792 10789 10785 10782 10779 10776 10773 10771 10768 10765 10762 10759 10757
10824 10827 10831 10831 10832 10836 10837 10837 10839 10842 10844 10845 10845 10846 10847 10848 10849 10849 10850 10851 10852 10853 10854 10854 10854 10855 10856 10856 10857 10857 10858 10858 10859 10859 10859 10859 10859 10858 10858 10857 10856 10855 10854 10854 10853 10851 10850 10849 10847 10846 10844 10842 10840 10837 10835 10833 10830 10828 10826 10823 10821 10819 10817 10814 10811 10808 10805 10802 10800 10797 10794 10791 10788 10785 10781 10778 10775 10771 10768 10766 10764 10761 10758 10755 10752
10817 10823 10824 10824 10829 10831 10830 10831 10834 10836 10839 10839 10839 10840 10841 10842 10844 10845 10846 10846 10847 10848 10849 10849 10849 10850 10851 10852 10852 10852 10853 10854 10854 10855 10855 10855 10855 10855 10854 10854 10853 10851 10851 10850 10849 10848 10847 10846 10844 10842 10841 10839 10837 10835 10832 10830 10827 10825 10822 10820 10818 10816 10813 10811 10808 10805 10802 10799 10796 10793 10790 10788 10784 10781 10777 10773 10771 10767 10764 10761 10760 10757 10755 10752 10747
10814 10817 10816 10820 10824 10824 10823 10826 10829 10831 10832 10833 10833 10835 10836 10836 10838 10840 10840 10841 10842 10844 10844 10844 10844 10845 10846 10847 10848 10848 10849 10849 10850 10850 10850 10851 10851 10851 10850 10850 10849 10847 10846 10846 10845 10844 10843 10842 10841 10839 10837 10835 10833 10832 10830 10827 10825 10822 10819 10817 10814 10812 10810 10807 10805 10802 10799 10796 10792 10789 10787 10784 10781 10778 10773 10769 10766 10763 10760 10757 10755 10753 10751 10748 10744
10808 10809 10810 10815 10817 10816 10818 10821 10823 10825 10826 10827 10828 10829 10830 10831 10833 10834 10835 10836 10838 10838 10839 10839 10839 10840 10841 10842 10843 10844 10844 10844 10845 10845 10845 10846 10846 10847 10847 10846 10845 10843 10842 10841 10840 10839 10838 10837 10837 10835 10834 10832 10830 10828 10826 10824 10822 10820 10817 10814 10810 10808 10805 10803 10801 10798 10796 10792 10789 10786 10783 10780 10777 10774 10770 10766 10762 10759 10756 10753 10750 10748 10746 10744 10740
10800 10802 10806 10808 10808 10810 10813 10815 10817 10819 10820 10821 10822 10822 10824 10826 10827 10829 10830 10831 10832 10833 10833 10834 10834 10835 10836 10837 10838 10838 10839 10839 10840 10840 10840 10841 10842 10842 10842 10842 10841 10839 10838 10837 10835 10834 10833 10832 10832 10831 10830 10829 10827 10825 10823 10821 10818 10816 10814 10811 10808 10804 10801 10798 10795 10792 10791 10788 10785 10782 10779 10776 10773 10770 10767 10763 10759 10755 10752 10749 10746 10743 10741 10739 10736
10792 10795 10799 10798 10801 10805 10807 10809 10810 10812 10813 10815 10816 10816 10817 10820 10821 10823 10825 10826 10827 10827 10827 10828 10828 10830 10831 10832 10833 10833 10834 10834 10834 10835 10835 10836 10838 10838 10838 10837 10836 10835 10834 10833 10831 10829 10828 10827 10827 10826 10825 10824 10823 10822 10820 10818 10816 10813 10810 10808 10805 10802 10799 10796 10792 10788 10785 10783 10780 10778 10775 10773 10770 10766 10763 10759 10755 10751 10748 10744 10741 10738 10735 10733 10732
10785 10787 10790 10791 10795 10798 10800 10802 10804 10806 10806 10807 10809 10810 10811 10813 10815 10817 10819 10821 10821 10821 10821 10821 10823 10824 10826 10826 10827 10828 10828 10828 10829 10829 10830 10831 10833 10833 10833 10832 10832 10831 10830 10829 10827 10825 10824 10823 10823 10822 10821 10819 10818 10817 10816 10815 10812 10810 10808 10806 10803 10800 10796 10793 10790 10787 10783 10780 10776 10773 10770 10767 10765 10762 10759 10756 10751 10747 10743 10740 10736 10733 10730 10728 10727
10778 10781 10784 10786 10789 10790 10793 10796 10797 10799 10799 10800 10802 10804 10805 10807 10809 10810 10812 10814 10815 10815 10814 10816 10818 10819 10821 10821 10821 10822 10822 10822 10823 10823 10825 10826 10828 10828 10827 10827 10827 10827 10827 10825 10823 10821 10820 10820 10819 10818 10816 10814 10813 10812 10811 10810 10808 10806 10804 10801 10800 10797 10795 10791 10787 10784 10781 10778 10775 10772 10768 10763 10760 10757 10755 10753 10749 10745 10740 10736 10732 10729 10725 10723 10721
10772 10775 10777 10779 10781 10782 10786 10789 10790 10791 10791 10792 10793 10796 10799 10801 10803 10803 10804 10806 10807 10808 10808 10810 10813 10813 10815 10815 10816 10816 10816 10816 10817 10818 10819 10821 10822 10822 10821 10821 10822 10823 10822 10820 10818 10817 10816 10816 10814 10813 10812 10810 10808 10806 10806 10805 10802 10800 10798 10795 10794 10792 10790 10788 10784 10780 10776 10773 10770 10768 10766 10762 10758 10753 10750 10748 10745 10741 10737 10732 10728 10725 10721 10718 10716
10765 10767 10769 10771 10773 10775 10778 10781 10781 10782 10783 10784 10786 10789 10792 10795 10796 10796 10797 10799 10799 10799 10801 10805 10806 10807 10808 10809 10810 10811 10810 10811 10811 10813 10815 10816 10817 10816 10815 10815 10817 10818 10818 10816 10813 10812 10812 10811 10810 10809 10807 10805 10803 10802 10800 10799 10797 10794 10793 10790 10788 10786 10783 10781 10779 10776 10772 10768 10765 10762 10760 10757 10755 10751 10747 10743 10740 10736 10732 10729 10725 10721 10717 10713 10710
10756 10759 10761 10763 10765 10766 10768 10772 10773 10773 10773 10776 10779 10782 10784 10786 10788 10789 10791 10790 10790 10792 10795 10799 10799 10801 10802 10803 10805 10805 10804 10805 10806 10808 10810 10811 10811 10810 10810 10810 10812 10813 10812 10810 10808 10808 10807 10807 10806 10805 10803 10801 10798 10797 10795 10794 10791 10788 10787 10785 10782 10780 10778 10775 10773 10770 10767 10764 10760 10757 10754 10751 10748 10745 10742 10738 10735 10731 10727 10724 10721 10718 10714 10710 10706
10747 10748 10751 10753 10755 10756 10758 10763 10763 10763 10766 10768 10771 10774 10775 10777 10780 10782 10783 10781 10783 10787 10790 10792 10793 10794 10796 10798 10798 10798 10799 10800 10801 10803 10804 10804 10804 10804 10805 10805 10806 10807 10806 10805 10803 10803 10803 10802 10802 10800 10799 10797 10794 10792 10791 10789 10786 10783 10782 10780 10777 10774 10772 10769 10767 10764 10762 10759 10755 10751 10748 10746 10742 10739 10736 10732 10728 10725 10722 10718 10714 10711 10708 10705 10702
10736 10736 10739 10742 10743 10746 10750 10753 10752 10754 10760 10760 10760 10764 10767 10768 10770 10773 10775 10776 10778 10782 10784 10785 10787 10789 10791 10792 10792 10792 10793 10794 10795 10797 10797 10797 10797 10798 10799 10800 10801 10801 10800 10798 10797 10797 10798 10797 10797 10796 10794 10792 10789 10787 10786 10785 10782 10779 10778 10776 10772 10770 10768 10764 10761 10758 10755 10753 10749 10746 10742 10739 10736 10732 10730 10726 10722 10719 10716 10712 10708 10705 10702 10698 10696
10723 10725 10728 10730 10732 10736 10740 10741 10741 10745 10750 10752 10752 10755 10758 10758 10761 10765 10768 10772 10774 10776 10778 10779 10781 10784 10785 10785 10786 10786 10787 10788 10789 10790 10791 10790 10791 10792 10794 10795 10796 10795 10793 10792 10791 10792 10792 10792 10791 10791 10789 10787 10784 10782 10781 10780 10778 10776 10774 10772 10769 10767 10763 10759 10757 10753 10750 10747 10744 10740 10736 10732 10729 10726 10723 10719 10715 10711 10709 10706 10702 10698 10696 10692 10689
10711 10714 10716 10718 10721 10725 10728 10730 10731 10734 10739 10743 10745 10746 10747 10749 10754 10759 10762 10766 10769 10771 10772 10774 10776 10777 10777 10777 10778 10779 10780 10782 10782 10783 10783 10784 10785 10787 10788 10789 10789 10788 10787 10786 10786 10787 10786 10786 10786 10785 10784 10782 10779 10776 10774 10774 10773 10771 10770 10768 10766 10764 10759 10754 10752 10748 10745 10742 10738 10734 10731 10726 10722 10719 10717 10713 10708 10704 10702 10700 10696 10692 10689 10686 10682
10701 10702 10703 10706 10710 10713 10716 10718 10720 10724 10729 10735 10738 10738 10739 10743 10748 10753 10755 10759 10763 10764 10767 10769 10768 10767 10767 10768 10770 10771 10773 10774 10775 10776 10777 10778 10780 10781 10781 10783 10783 10782 10781 10780 10780 10781 10780 10780 10780 10780 10779 10777 10774 10771 10768 10768 10767 10765 10764 10763 10761 10760 10756 10751 10747 10744 10740 10737 10733 10729 10726 10722 10716 10713 10711 10707 10702 10697 10694 10692 10689 10685 10682 10678 10675
10688 10688 10689 10694 10699 10703 10705 10709 10712 10716 10722 10726 10729 10731 10733 10738 10743 10746 10748 10751 10755 10758 10760 10760 10757 10757 10759 10761 10762 10764 10767 10768 10769 10770 10771 10772 10773 10774 10775 10776 10776 10776 10775 10775 10775 10775 10774 10773 10774 10774 10774 10773 10771 10767 10764 10763 10762 10759 10758 10757 10755 10754 10751 10747 10744 10741 10737 10732 10728 10725 10721 10718 10713 10708 10705 10701 10697 10692 10687 10684 10681 10677 10674 10670 10667
10673 10674 10678 10685 10691 10695 10697 10702 10706 10710 10715 10718 10721 10724 10729 10733 10737 10740 10741 10742 10746 10750 10751 10748 10747 10750 10752 10754 10756 10758 10760 10762 10762 10764 10765 10765 10766 10767 10769 10769 10770 10770 10770 10770 10771 10770 10770 10769 10769 10769 10769 10768 10766 10763 10760 10759 10757 10754 10752 10751 10750 10748 10746 10743 10741 10738 10735 10730 10724 10720 10717 10713 10709 10704 10700 10695 10691 10687 10682 10677 10673 10669 10666 10662 10658
10662 10665 10671 10678 10682 10686 10690 10695 10699 10704 10708 10710 10713 10718 10722 10727 10730 10733 10735 10736 10739 10740 10738 10738 10739 10743 10746 10747 10750 10752 10754 10755 10756 10758 10759 10759 10758 10759 10761 10762 10763 10764 10764 10765 10765 10765 10765 10764 10765 10765 10764 10762 10761 10759 10756 10754 10753 10750 10748 10746 10745 10743 10741 10739 10736 10734 10733 10729 10722 10716 10711 10707 10704 10699 10694 10689 10685 10681 10676 10670 10666 10661 10657 10654 10650
10653 10657 10664 10670 10673 10678 10682 10687 10692 10696 10700 10701 10705 10710 10714 10718 10722 10726 10730 10730 10731 10730 10728 10730 10733 10736 10739 10740 10742 10745 10747 10748 10749 10751 10752 10751 10751 10751 10754 10756 10756 10757 10757 10759 10760 10760 10759 10759 10760 10760 10759 10757 10756 10754 10751 10749 10748 10745 10743 10741 10739 10738 10736 10733 10731 10729 10727 10724 10720 10713 10705 10701 10698 10693 10687 10683 10678 10673 10669 10664 10659 10654 10649 10645 10642
10641 10648 10655 10660 10663 10669 10672 10677 10684 10686 10689 10692 10696 10700 10704 10709 10714 10719 10723 10723 10722 10721 10721 10724 10726 10729 10731 10733 10735 10738 10739 10741 10743 10745 10745 10744 10743 10744 10746 10748 10749 10750 10751 10752 10753 10754 10754 10754 10755 10754 10753 10752 10751 10749 10746 10743 10742 10739 10737 10736 10734 10732 10731 10728 10725 10723 10721 10718 10715 10710 10702 10696 10692 10686 10680 10675 10671 10666 10661 10657 10652 10647 10642 10637 10633
10631 10639 10644 10649 10653 10658 10662 10667 10673 10676 10680 10684 10687 10691 10694 10700 10707 10710 10713 10713 10712 10713 10715 10718 10719 10720 10723 10725 10727 10730 10731 10734 10736 10737 10738 10738 10737 10737 10739 10741 10742 10743 10744 10745 10747 10748 10748 10748 10748 10748 10747 10746 10745 10743 10741 10738 10736 10734 10732 10731 10729 10727 10725 10722 10720 10718 10715 10711 10708 10704 10698 10692 10687 10680 10672 10667 10663 10658 10652 10647 10643 10639 10634 10629 10625